sat.trackr.live / text

‹ back to catalog

STARLINK-31610

NORAD 59473 · 2024-068U

PAYLOAD ACTIVE UNKNOWN

§ Identity

Operator
Country
US
Launch date
2024-04-10
Launch site
AFETR
Launch vehicle
Mass (kg)
RCS (m²)

Purposes: comms

External: N2YO · Heavens-Above · Gunter

§ Orbital elements

Epoch: 2026-05-24T19:00:33.223680Z

Period
94.27 min
Inclination
43.0007°
Eccentricity
0.0001027
Mean motion
15.27572778 rev/d
Perigee alt
482.4 km
Apogee alt
483.8 km
Semi-major
6,861.2 km
B*
4.0656e-5
RAAN
324.5538°
Arg perigee
266.2093°
Mean anomaly
93.8641°
Rev number
12,016

§ Raw data

STARLINK-316101 59473U 24068U   26144.79205120  .00000857  00000+0  40656-4 0  99952 59473  43.0007 324.5538 0001027 266.2093  93.8641 15.27572778120164

JSON: /api/v1/satellites/59473 · /tle

For live sub-satellite position, see the globe view (requires WebGL).

§ Visibility from observer

Set your observer location to see the next 7 days of passes ≥ 10°. The values pass through the URL so the page stays shareable.

No JS? Fill the form by hand. The geolocation button needs JavaScript.